www.pogodaiklimat.ru

Погода и климат >> Архив погоды >> Россия >> Астраханская область >> Досанг


ПОГОДА в Досанге

  • Прогноз погоды в Досанге
  • Монитор погоды в Досанге
  • Климат города

АРХИВ ПОГОДЫ в Досанге

Время (UTC), дата Ветер
(напр.,м/с)
 
Видим.   Явления Облачность Т
(С)
Тd
(С)
f
(%)
Тe
(С)
Тes
(С)
Комфортность P
(гПа)
Po
(гПа)
Тmin
(С)
Tmax
(С)
R
(мм)
R24
(мм)
S
(см)
21 18.04 В 2 10 км ясно +10.0 +9.2 95 +8 +8 1011.8 1014.0
00 19.04 СВ 1 4000 м дымка 3/0
[Ci fib]
+7.3 +6.5 95 +6 +6 1010.3 1012.5
03 19.04 В 2 20 км 10/0
[Cs]
+8.0 +6.5 90 +6 +7 1009.5 1011.7 +6.3
06 19.04 ЮВ 5 20 км 8/0
[Cs]
+20.4 +10.3 52 +22 +26 комфорт 1009.1 1011.2
09 19.04 ЮЗ 2 20 км 10/3 600 м
[Cu hum Cs]
+23.7 +8.3 37 +24 +33 комфорт 1008.5 1010.5
12 19.04 З 9-16
{16}
20 км пыльный позёмок 10/3 600 м
[Cu med, cong Cs]
+18.1 +11.0 63 +17 +18 1009.1 1011.2
15 19.04 З 7-13
{17}
20 км пыльный позёмок 10/10 600 м
[Cb cap]
+15.1 +4.0 47 +13 +13 1012.5 1014.6 +24.6
18 19.04 СЗ 3
{13}
10 км {ливн. осадки} 10/10 600 м
[Cb cap]
+10.9 +7.8 81 +9 +9 1013.7 1015.9
21 19.04 З 4 10 км 10/10 600 м
[Sc]
+9.4 +5.2 75 +7 +7 1014.9 1017.1
00 20.04 З 3
{10}
10 км 3/0
[Ci fib]
+5.3 +1.8 78 +2 +2 1015.8 1018.0
03 20.04 З 4 20 км 10/0
[Ac und Ci fib]
+6.3 +3.2 81 +3 +3 1017.0 1019.2 +4.7 0.0
06 20.04 З 5-10
{11}
20 км 10/10 600 м
[Sc diur, vesp]
+8.7 +3.5 70 +5 +5 1017.9 1020.1
09 20.04 З 5-10
{11}
20 км 9/9 600 м
[Cu med, cong]
+9.8 +3.5 65 +7 +8 1018.5 1020.7
12 20.04 СЗ 5
{11}
20 км ясно +12.4 +2.7 52 +10 +15 1018.5 1020.7
15 20.04 СЗ 4 20 км ясно +10.5 +1.3 53 +8 +9 1019.6 1021.9 +12.6
18 20.04 СЗ 3 10 км ясно +5.1 +0.1 70 +2 +2 1020.8 1023.1
21 20.04 С 3 10 км ясно +2.1 -1.1 79 -2 -2 1020.9 1023.2
00 21.04 С 3 10 км ясно 0.0 -2.2 85 -5 -5 1020.6 1022.9
03 21.04 СВ 5 20 км ясно +1.7 -1.6 79 -4 -3 1020.8 1023.1 -0.3
06 21.04 В 7
{10}
20 км 8/0
[Ci fib]
+9.0 -1.5 48 +5 +8 1020.4 1022.7
09 21.04 В 6
{11}
20 км 10/1 600 м
[Cu hum Cs]
+12.3 -0.5 41 +10 +14 1018.6 1020.8
12 21.04 Ю 4
{11}
20 км 10/3 600 м
[Cu hum Cs]
+15.2 +3.1 44 +14 +17 1016.9 1019.1
15 21.04 ЮВ 5 20 км 10/1 600 м
[Sc diur, vesp As op]
+12.9 +4.6 57 +11 +11 1015.1 1017.3 +15.7
18 21.04 В 6 10 км 10/0
[Ac As]
+9.4 +5.0 74 +6 +6 1014.5 1016.7
21 21.04 В 4 10 км 10/0
[Ac As]
+9.5 +3.7 67 +7 +7 1012.7 1014.9
00 22.04 С 1 10 км 10/0
[Ac As]
+9.8 +3.0 63 +10 +10 1010.3 1012.5
03 22.04 З 7-13
{13}
4000 м в посл. час дождь 10/8 300 м
[Frnb As op]
+7.0 +5.5 90 +2 +2 1009.7 1011.9 +7.0 0.3
06 22.04 З 4
{15}
20 км в посл. час дождь 10/6 300 м
[Frnb As op]
+7.0 +3.9 81 +3 +4 1010.0 1012.2 +5.0
09 22.04 ЮЗ 4-10
{10}
20 км 10/3 600 м
[Cu hum As trans]
+9.5 +3.7 67 +7 +10 1010.6 1012.8
12 22.04 ЮЗ 8-21
{21}
20 км 9/9 600 м
[Sc diur, vesp]
+13.4 +1.0 43 +11 +11 1009.4 1011.6
15 22.04 З 7-13
{21}
20 км {ливн. осадки} 3/3 600 м
[Sc diur, vesp]
+9.5 +2.6 62 +6 +6 1012.0 1014.2 +13.4 4
18 22.04 З 4
{13}
10 км {ливн. осадки} ясно +7.6 +2.4 70 +4 +4 1015.8 1018.0
21 22.04 З 2 10 км ясно +4.8 +1.9 81 +2 +2 1016.2 1018.4
00 23.04 Ю 3 10 км ясно +3.8 +1.9 87 0 0 1017.1 1019.3
03 23.04 Ю 3 20 км 10/8 600 м
[Sc Ci sp]
+4.4 +2.4 87 +1 +1 1017.5 1019.8 +3.2
06 23.04 Ю 3 20 км 10/0
[Ac As]
+9.2 +3.7 68 +7 +10 1017.3 1019.6
09 23.04 ЮВ 5-10
{10}
20 км 10/0
[As trans]
+13.0 +1.1 44 +11 +15 1015.1 1017.3
12 23.04 ЮВ 7-10
{10}
20 км 10/0
[Ac As]
+14.8 +2.2 43 +13 +14 1011.7 1013.8
15 23.04 В 9-14
{14}
20 км 10/0
[As trans]
+11.6 +5.1 64 +8 +8 1006.5 1008.6 +15.1
18 23.04 В 7-10
{14}
10 км 10/0
[Cs]
+11.1 +5.7 69 +8 +8 1003.1 1005.3
21 23.04 ЮВ 3
{12}
10 км 10/0
[Cs]
+12.2 +5.8 65 +11 +11 1000.7 1002.8
00 24.04 З 3 10 км 4/0
[Ci fib]
+10.6 +6.7 77 +9 +9 1000.8 1003.0
03 24.04 ЮЗ 6-12
{12}
20 км 3/1 600 м
[Cu hum Ci sp]
+9.4 +1.0 56 +6 +6 1003.6 1005.8 +9.3
06 24.04 ЮЗ 7-13
{16}
20 км пыльный позёмок 9/9 600 м
[Cu Sc]
+9.9 +1.4 55 +6 +7 1005.0 1007.2 +8.9
09 24.04 -15
{17}
20 км пыльный позёмок н/о +13.4 +2.4 47 +11 +13 1005.7 1007.9
12 24.04 З 6-11
{17}
20 км пыльный позёмок 4/4 600 м
[Sc diur, vesp]
+13.0 +3.1 51 +11 +13 1008.8 1010.9
15 24.04 З 4
{14}
20 км ясно +12.4 +3.2 53 +11 +11 1011.9 1014.1 +13.9
18 24.04 ЮЗ 2 10 км ясно +7.0 +2.8 75 +5 +5 1015.3 1017.5
21 24.04 ЮЗ 2 10 км ясно +5.9 +3.1 82 +4 +4 1016.7 1018.9
00 25.04 З 2 10 км 10/0
[Ac und]
+7.2 +2.5 72 +5 +5 1018.0 1020.2
03 25.04 ЮЗ 4 20 км 10/0
[Ac As]
+8.2 +1.9 64 +5 +5 1019.1 1021.4 +4.8
06 25.04 ЮЗ 5-12
{13}
20 км 10/8 600 м
[Sc diur, vesp Cs]
+9.0 +1.7 60 +6 +7 1021.2 1023.5
09 25.04 З 5-12
{13}
20 км 10/10 600 м
[Sc diur, vesp]
+11.4 +1.3 50 +9 +9 1022.2 1024.4
12 25.04 З 4
{14}
20 км в посл. час ливневой дождь 8/8 600 м
[Cb cap]
+12.0 +1.2 48 +10 +11 1022.7 1024.9
15 25.04 З 5-12
{12}
20 км {ливн. осадки} 9/9 600 м
[Cb cap]
+11.4 -2.7 37 +9 +9 1024.7 1026.9 +14.0
18 25.04 ЮЗ 2
{12}
10 км {ливн. осадки} ясно +5.4 +1.9 78 +3 +3 1026.9 1029.2

 

Местоположение метеостанции Досанг (Астраханская область, Россия): широта 46.92 долгота 47.93 высота над уровнем моря -19 м.

В архиве по умолчанию представлена погода в Досанге за последнюю неделю. Архивные данные за месяц целиком и за предыдущие месяцы, начиная с января 2011 года, Вы можете получить, выбрав интересующий диапазон дат из раскрывающегося списка и нажав кнопку "Ввод!".

Внимание! Время в таблицах - всемирное. Для получения местного времени необходимо прибавить поправку, которая в Досанге равна 4 ч.

Смотрите также архив погоды в соседних городах и на ближайших метеорологических станциях:

Погода в Астрахани (Астраханская область, Россия) (71 км)
Погода в Харабали (Астраханская область, Россия) (74 км)
Погода в Зеленге (Астраханская область, Россия) (98 км)
Погода в Ганюшкино (Атырауская область, Казахстан) (108 км)
Погода в Юсте (Калмыкия, Россия) (124 км)
Погода в Жанауштогане (Атырауская область, Казахстан) (127 км)
Погода в Лимане (Астраханская область, Россия) (136 км)
Погода в Утте (Калмыкия, Россия) (158 км)
Погода в Исатай (Атырауская область, Казахстан) (163 км)
Погода в Верхнем Баскунчаке (Астраханская область, Россия) (170 км)

Пояснения к столбцам:

Ветер - указаны скорость ветра в м/с - средняя за 10 мин, порывы в срок и между сроками (в фигурных скобках) и направление, откуда дует ветер: С - северный, СВ - северо-восточный, В - восточный, ЮВ - юго-восточный, Ю - южный, ЮЗ - юго-западный, З - западный, СЗ - северо-западный.
Видимость - горизонтальная дальность видимости в метрах или километрах. При видимости от 1 до 10 км при отсутствии осадков обычно наблюдается дымка, при ухудшении видимости до 1 км и менее - туман. В сухую погоду видимость может ухудшаться дымом, пылью или мглою.
Явления - указаны атмосферные явления, наблюдавшиеся в срок или в последний час перед сроком; фигурными скобками обозначены явления, наблюдавшиеся между сроками (за 1-3 часа до срока); квадратными скобками обозначены град или гололедные отложения с указанием их диаметра в мм.
Облачность - указаны через наклонную черту общая и нижняя облачность в баллах и высота нижней границы облаков в метрах; квадратными скобками обозначены формы облаков: Ci - перистые, Cs - перисто-слоистые, Cc - перисто-кучевые, Ac - высококучевые, As - высокослоистые, Sc - слоисто-кучевые, Ns - слоисто-дождевые, Cu - кучевые, Cb - кучево-дождевые. Подробнее классификацию облаков см. в Атласе облаков (PDF).
T - Температура воздуха - температура, измеренная на высоте 2 м над землей.
Td - Температура точки росы - температура, при понижении до которой содержащийся в воздухе водяной пар достигнет насыщения.
f - Относительная влажность воздуха - влажноcть воздуха, измеренная на высоте 2 м над землей.
Te - Эффективная температура - температура, которую ощущает одетый по сезону человек в тени. Характеристика душности погоды. При расчете учитывается влияние влажности воздуха и скорости ветра на теплоощущения человека.
Tes - Эффективная температура на солнце - температура, которую ощущает человек, с поправкой на солнечный нагрев. Характеристика знойности погоды. Зависит от высоты солнца над горизонтом, облачности и скорости ветра. Ночью, в пасмурную погоду, а также при ветре 12 м/с и более поправка равна нулю.
P - Атмосферное давление - приведенное к уровню моря атмосферное давление.
Po - Атмосферное давление - измеренное на уровне метеостанции атмосферное давление.
Tmin - Минимальная температура - минимум температуры воздуха на высоте 2 м над землей.
Tmax - Максимальная температура - максимум температуры воздуха на высоте 2 м над землей.
R - Количество осадков - Количество выпавших осадков за период времени, мм. При наведении курсора мыши на число - период времени, за который выпало указанное количество осадков.
R24 - Количество осадков - Количество выпавших осадков за 24 часа, мм.
S - Снежный покров - Высота снежного покрова, см. При наведении курсора мыши на число - состояние снежного покрова и степень покрытия местности в баллах.